Location: *
(49.7115°N, 15.0136°E)
Time: 18:37:50
(UTC+00:00)

STARLINK-36 - Pass Details

Date: 27 February 2020
Orbit: 528 x 530 km, 53.0° (Epoch: 28 March)

Event Time Altitude Azimuth Distance (km) Brightness Sun altitude
Rises 17:51:52 0° 276° (W) 2,666 9.2 -12.7°
Reaches altitude 10° 17:54:07 10° 282° (WNW) 1,776 7.6 -13.0°
Maximum altitude 17:58:04 52° 359° (N) 667 4.0 -13.7°
Enters shadow 18:00:27 22° 68° (ENE) 1,201 4.8 -14.1°
